Artesia, NM

6:52 PM MDT on September 24, 2016 (GMT -0600)
Artesia Municipal

Weather History for KATS - March, 2013

Change the Weather History Date:

Tuesday, March 26, 2013

  Actual Average Record
Temperature  
Mean Temperature 45 °F -  
Max Temperature 64 °F 72 °F 87 °F (2004)
Min Temperature 26 °F 35 °F 22 °F (1955)
Degree Days  
Heating Degree Days 20    
Moisture  
Dew Point 10 °F    
Average Humidity 24    
Maximum Humidity 40    
Minimum Humidity 14    
Precipitation  
Precipitation 0.00 in - - ()
Sea Level Pressure  
Sea Level Pressure 30.19 in    
Wind  
Wind Speed 11 mph (SSE)    
Max Wind Speed 24 mph    
Max Gust Speed 30 mph    
Visibility 10 miles    
Events      
Averages and records for this station are not official NWS values.
T = Trace of Precipitation, MM = Missing Value Source: NWS Daily Summary

Daily Weather History Graph

Daily Weather History Graph

Search for Another Location

Airport or City:

Trip Planner

Search our weather history database for the weather conditions in past years. The results will help you decide how hot, cold, wet, or windy it might be!

Date:

Astronomy

Mar. 26, 2013 Rise Set
Actual Time 6:53 AM MDT 7:13 PM MDT
Civil Twilight 6:28 AM MDT 7:38 PM MDT
Nautical Twilight 5:59 AM MDT 8:07 PM MDT
Astronomical Twilight 5:30 AM MDT 8:37 PM MDT
Moon 6:52 PM MDT (3/26) 6:10 AM MDT (3/26)
Length of Visible Light 13h 10m
Length of Day
12h 20m
Waxing Gibbous, 99% of the Moon is Illuminated
Mar 26
Waxing Gibbous
Mar 27
Full
Apr 2
Last Quarter
Apr 10
New
Apr 18
First Quarter

Hourly Weather History & Observations

Time (MDT) Temp. Windchill Dew Point Humidity Pressure Visibility Wind Dir Wind Speed Gust Speed Precip Events Conditions
12:15 AM 35.6 °F 28.6 °F 5.0 °F 28% 30.29 in 10.0 mi South 9.2 mph - N/A   Clear
12:35 AM 35.6 °F 29.2 °F 5.0 °F 28% 30.29 in 10.0 mi South 8.1 mph - N/A   Clear
12:55 AM 35.6 °F 29.2 °F 5.0 °F 28% 30.29 in 10.0 mi SSE 8.1 mph - N/A   Clear
1:15 AM 33.8 °F 27.0 °F 5.0 °F 30% 30.29 in 10.0 mi South 8.1 mph - N/A   Clear
1:35 AM 32.0 °F 24.2 °F 5.0 °F 32% 30.29 in 10.0 mi South 9.2 mph - N/A   Clear
1:55 AM 33.8 °F 26.4 °F 5.0 °F 30% 30.29 in 10.0 mi South 9.2 mph - N/A   Clear
2:15 AM 32.0 °F 28.7 °F 5.0 °F 32% 30.29 in 10.0 mi South 3.5 mph - N/A   Clear
2:35 AM 32.0 °F 25.6 °F 5.0 °F 32% 30.29 in 10.0 mi South 6.9 mph - N/A   Clear
2:55 AM 30.2 °F 24.3 °F 5.0 °F 34% 30.29 in 10.0 mi South 5.8 mph - N/A   Clear
3:15 AM 32.0 °F 26.4 °F 5.0 °F 32% 30.29 in 10.0 mi South 5.8 mph - N/A   Clear
3:35 AM 28.4 °F - 5.0 °F 37% 30.29 in 10.0 mi Calm Calm - N/A   Clear
3:55 AM 32.0 °F - 5.0 °F 32% 30.29 in 10.0 mi Calm Calm - N/A   Clear
4:15 AM 28.4 °F - 1.4 °F 31% 30.29 in 10.0 mi Calm Calm - N/A   Clear
4:35 AM 28.4 °F - 1.4 °F 31% 30.29 in 10.0 mi Calm Calm - N/A   Clear
4:55 AM 28.4 °F 23.3 °F 1.4 °F 31% 30.28 in 10.0 mi SE 4.6 mph - N/A   Clear
5:15 AM 32.0 °F 25.6 °F 5.0 °F 32% 30.28 in 10.0 mi SE 6.9 mph - N/A   Clear
5:35 AM 28.4 °F 22.2 °F 5.0 °F 37% 30.28 in 10.0 mi SE 5.8 mph - N/A   Clear
5:55 AM 28.4 °F 22.2 °F 5.0 °F 37% 30.28 in 10.0 mi SE 5.8 mph - N/A   Clear
6:15 AM 30.2 °F 24.3 °F 6.8 °F 37% 30.29 in 10.0 mi SSE 5.8 mph - N/A   Clear
6:35 AM 28.4 °F 20.4 °F 5.0 °F 37% 30.29 in 10.0 mi SE 8.1 mph - N/A   Clear
6:55 AM 28.4 °F 21.2 °F 5.0 °F 37% 30.30 in 10.0 mi SSE 6.9 mph - N/A   Clear
7:15 AM 26.6 °F 19.1 °F 5.0 °F 40% 30.30 in 10.0 mi SE 6.9 mph - N/A   Clear
7:35 AM 28.4 °F 22.2 °F 6.8 °F 40% 30.30 in 10.0 mi SSE 5.8 mph - N/A   Clear
7:55 AM 30.2 °F 23.4 °F 6.8 °F 37% 30.30 in 10.0 mi SE 6.9 mph - N/A   Clear
8:15 AM 32.0 °F 23.6 °F 6.8 °F 35% 30.31 in 10.0 mi SSE 10.4 mph - N/A   Clear
8:35 AM 37.4 °F 28.2 °F 6.8 °F 28% 30.31 in 10.0 mi SSE 16.1 mph - N/A   Clear
8:55 AM 39.2 °F 29.6 °F 8.6 °F 28% 30.31 in 10.0 mi SSE 19.6 mph - N/A   Clear
9:15 AM 41.0 °F 32.5 °F 8.6 °F 26% 30.31 in 10.0 mi SSE 17.3 mph 24.2 mph N/A   Clear
9:35 AM 41.0 °F 31.9 °F 8.6 °F 26% 30.30 in 10.0 mi SSE 19.6 mph 27.6 mph N/A   Clear
9:55 AM 41.0 °F 31.4 °F 8.6 °F 26% 30.30 in 10.0 mi SSE 21.9 mph 27.6 mph N/A   Clear
10:15 AM 42.8 °F 34.5 °F 8.6 °F 25% 30.29 in 10.0 mi South 18.4 mph - N/A   Clear
10:35 AM 44.6 °F 37.4 °F 8.6 °F 23% 30.29 in 10.0 mi SSE 16.1 mph 21.9 mph N/A   Clear
10:55 AM 44.6 °F 37.2 °F 10.4 °F 25% 30.28 in 10.0 mi SSE 17.3 mph - N/A   Clear
11:15 AM 46.4 °F 39.8 °F 10.4 °F 23% 30.27 in 10.0 mi SSE 16.1 mph 23.0 mph N/A   Clear
11:35 AM 48.2 °F - 10.4 °F 22% 30.25 in 10.0 mi SE 19.6 mph 23.0 mph N/A   Clear
11:55 AM 50.0 °F - 10.4 °F 20% 30.24 in 10.0 mi SSE 13.8 mph 24.2 mph N/A   Clear
12:15 PM 50.0 °F - 10.4 °F 20% 30.23 in 10.0 mi South 18.4 mph - N/A   Clear
12:35 PM 53.6 °F - 12.2 °F 19% 30.22 in 10.0 mi SSE 18.4 mph 25.3 mph N/A   Clear
12:55 PM 55.4 °F - 12.2 °F 18% 30.20 in 10.0 mi SSE 19.6 mph 25.3 mph N/A   Clear
1:15 PM 55.4 °F - 12.2 °F 18% 30.19 in 10.0 mi SSE 18.4 mph 27.6 mph N/A   Clear
1:35 PM 57.2 °F - 14.0 °F 18% 30.18 in 10.0 mi SSE 17.3 mph 23.0 mph N/A   Clear
1:55 PM 59.0 °F - 14.0 °F 17% 30.16 in 10.0 mi SSE 20.7 mph 26.5 mph N/A   Clear
2:15 PM 59.0 °F - 14.0 °F 17% 30.15 in 10.0 mi SSE 20.7 mph 26.5 mph N/A   Clear
2:35 PM 60.8 °F - 14.0 °F 16% 30.13 in 10.0 mi SSE 21.9 mph 26.5 mph N/A   Clear
2:55 PM 62.6 °F - 14.0 °F 15% 30.12 in 10.0 mi SSE 21.9 mph 26.5 mph N/A   Clear
3:15 PM 62.6 °F - 14.0 °F 15% 30.10 in 10.0 mi South 19.6 mph 24.2 mph N/A   Clear
3:35 PM 64.4 °F - 14.0 °F 14% 30.10 in 10.0 mi SSE 21.9 mph - N/A   Clear
3:55 PM 62.6 °F - 14.0 °F 15% 30.08 in 10.0 mi SSE 20.7 mph 28.8 mph N/A   Clear
4:15 PM 64.4 °F - 14.0 °F 14% 30.07 in 10.0 mi SSE 21.9 mph 27.6 mph N/A   Clear
4:35 PM 64.4 °F - 14.0 °F 14% 30.06 in 10.0 mi SSE 21.9 mph 29.9 mph N/A   Clear
4:55 PM 62.6 °F - 14.0 °F 15% 30.05 in 10.0 mi SE 24.2 mph 28.8 mph N/A   Clear
5:15 PM 62.6 °F - 14.0 °F 15% 30.05 in 10.0 mi SSE 21.9 mph 26.5 mph N/A   Clear
5:35 PM 64.4 °F - 14.0 °F 14% 30.04 in 10.0 mi SSE 24.2 mph - N/A   Clear
5:55 PM 64.4 °F - 14.0 °F 14% 30.05 in 10.0 mi SSE 21.9 mph - N/A   Clear
6:15 PM 62.6 °F - 14.0 °F 15% 30.04 in 10.0 mi SSE 20.7 mph 27.6 mph N/A   Clear
6:35 PM 62.6 °F - 14.0 °F 15% 30.04 in 10.0 mi SSE 17.3 mph 26.5 mph N/A   Clear
6:55 PM 62.6 °F - 14.0 °F 15% 30.04 in 10.0 mi SSE 16.1 mph - N/A   Clear
7:15 PM 60.8 °F - 14.0 °F 16% 30.04 in 10.0 mi SSE 16.1 mph - N/A   Clear
7:35 PM 59.0 °F - 14.0 °F 17% 30.05 in 10.0 mi SSE 11.5 mph - N/A   Clear
7:55 PM 57.2 °F - 14.0 °F 18% 30.05 in 10.0 mi South 11.5 mph - N/A   Clear
8:15 PM 57.2 °F - 14.0 °F 18% 30.05 in 10.0 mi South 11.5 mph - N/A   Clear
8:35 PM 55.4 °F - 14.0 °F 20% 30.06 in 10.0 mi South 10.4 mph - N/A   Clear
8:55 PM 55.4 °F - 14.0 °F 20% 30.06 in 10.0 mi South 15.0 mph - N/A   Clear
9:15 PM 55.4 °F - 14.0 °F 20% 30.06 in 10.0 mi South 16.1 mph - N/A   Clear
9:35 PM 55.4 °F - 14.0 °F 20% 30.07 in 10.0 mi South 17.3 mph - N/A   Clear
9:55 PM 55.4 °F - 14.0 °F 20% 30.07 in 10.0 mi South 19.6 mph 25.3 mph N/A   Clear
10:15 PM 53.6 °F - 14.0 °F 21% 30.08 in 10.0 mi SSE 11.5 mph - N/A   Clear
10:35 PM 51.8 °F - 12.2 °F 21% 30.08 in 10.0 mi South 13.8 mph - N/A   Clear
10:55 PM 50.0 °F - 14.0 °F 24% 30.08 in 10.0 mi South 13.8 mph - N/A   Clear
11:15 PM 50.0 °F - 14.0 °F 24% 30.07 in 10.0 mi South 16.1 mph - N/A   Clear
11:35 PM 50.0 °F - 14.0 °F 24% 30.07 in 10.0 mi South 17.3 mph - N/A   Clear
11:55 PM 50.0 °F - 14.0 °F 24% 30.06 in 10.0 mi South 17.3 mph 24.2 mph N/A   Clear